COSMOS 2023 (GLONASS)

Satellite information

Favourite Embed

Satellite Type and Status

PAYLOADIN ORBIT

Key statistics

Satellite COSMOS 2023 (GLONASS) at a glance.

Uptime

13345

Days in orbit

Revolutions

≈ 2.1

Per day

Orbit

MEO

Medium Earth Orbit

Inclination

65.1

Latest

Satellite identification and parameters

Extended collection of information and parameters for COSMOS 2023 (GLONASS).

Object identification

Identified? True

Debris? False

Object name: COSMOS 2023 (GLONASS)

International designator: 1989-039B

Object number (NORAD): 20025

Object ID (CCSDS): 20025

Country: COMMONWEALTH OF INDEPENDENT STATES (CIS)

Current information (Y/N): Y

RCS size: LARGE

Orbital parameters

Period: 675.726 minutes

Inclination: 65.0778 deg

SMA: 25507.865 km

Apoapsis: 19181.535 km

Periapsis: 19077.925 km

RAAN: 317.7073 deg

Eccentricy: 0.00203093

Argument of periapsis: 201.9564 deg

Mean anomaly: 333.0638 deg

Mean motion: 2.13104 rev/day

Mean motion (dot): -0.00000048 rev/day2

B* drag term: 0.0 1/REarth

Two-line elements (TLE)

Creation date: Dec. 9, 2025, 5:41 p.m.

Reference frame: TEME

Reference center: EARTH

Epoch: Dec. 9, 2025, 8:18 a.m. UTC

TLE line 0: 0 COSMOS 2023 (GLONASS)

TLE line 1: 1 20025U 89039B 25343.34639955 -.00000048 00000-0 00000-0 0 9992

TLE line 2: 2 20025 65.0778 317.7073 0020309 201.9564 333.0638 2.13104000284217

Live tracking on map

Real-time ground track for satellite COSMOS 2023 (GLONASS).

In-orbit conjunctions

A list of the most updated potential collisions computed for object COSMOS 2023 (GLONASS).

Target Orbit TCA Probability of collision Miss distance Type
SL-12 R/B(2) MEO 2024-09-16 04:51:36 TBA 3110.0 (m) ROCKET BODY

Associated space launch

GLONASS navigation satellites

COSMOS 2023 (GLONASS) was lifted into orbit during the mission ‘Proton | Uragan 34 & 35’, on board a Proton space rocket.

The launch took place on May 31, 1989, 8:31 a.m. from 200/40.

For more information about the launch, click the button.

Launch to space Proton | Uragan 34 & 35
Proton | Uragan 34 & 35

Agency: N/A

Status: Launch Successful

Launch date: May 31, 1989, 8:31 a.m. UTC

Rocket: Proton

Launch pad: 200/40

Location: Baikonur Cosmodrome, Republic of Kazakhstan

...

Latest news about this satellite

There are no fresh news available about this satellite. Check back as we update our databases every day.


Newsletter sign-up

Weekly statistics, charts and insights to help you stay on top of the space industry.